SCP
-0 -0 -0 -0 -0 -0 -0 -0 0 0 0 0 0 -0 -0 -1 -1 -1 -1 -1 -1 -1 -1 -1 -1 -1 -0 -0 -0 -1 -1 -1 -1 -0 0 0 0 0 -0 -0 -0 -0 0 0
-0 -0 -0 -0 -0 -0 -0 -0 0 0 0 0 0 -0 -0 -0 -1 -1 -1 -1 -1 -1 -1 -1 -1 -0 -0 -0 -0 -0 -1 -1 -1 -0 -0 0 0 0 -0 -0 -0 0 0 0
-0 -0 -0 -0 -0 -0 -0 -0 -0 0 0 -0 0 0 -0 -0 -0 -0 -1 -1 -1 -1 -1 -1 -1 -0 -0 -0 -0 -0 -0 -1 -1 -1 -1 -1 -0 -0 -0 -0 0 0 0 0
0 -0 -0 -0 -0 -0 -0 -0 -0 0 0 -0 0 0 0 0 -0 -0 -0 -1 -1 -1 -1 -1 -1 -1 -1 -1 -1 -1 -1 -1 -1 -1 -1 -1 -1 -1 -1 -0 0 0 0 0
-0 -0 -0 -0 -0 -0 -0 -0 -0 -0 -0 -0 0 0 0 0 0 -0 -0 -0 -1 -1 -1 -1 -1 -1 -1 -1 -1 -1 -1 -1 -1 -1 -1 -1 -1 -1 -1 -1 -0 -0 0 0
-0 -0 -0 -0 -0 -0 -0 -0 -0 -0 -0 -0 0 0 0 0 0 -0 -0 -0 -1 -1 -1 -1 -1 -1 -1 -1 -1 -1 -1 -1 -1 -1 -1 -1 -1 -1 -1 -1 -1 -0 -0 -0
-0 -0 -0 -0 -0 -0 -0 -0 -0 -0 -0 -0 0 0 0 0 -0 -0 -0 -0 -1 -1 -1 -1 -1 -1 -1 -1 -1 -1 -1 -1 -1 -1 -1 -1 -1 -1 -1 -1 -1 -0 -0 -0
-0 -0 -0 -0 -0 -0 -0 -0 -0 -0 -0 -0 0 0 0 -0 -0 -0 -0 -0 -1 -1 -1 -1 -1 -1 -1 -1 -1 -1 -1 -1 -1 -1 -1 -1 -1 -1 -1 -1 -0 -0 -0 0
-0 -0 -0 -0 -0 -0 -0 -0 -0 -0 -0 -0 0 0 0 -0 -0 -0 -0 -0 -0 -0 -0 -0 -0 -0 -0 -0 -1 -1 -1 -1 -0 -0 -0 -0 -0 -0 -0 -0 -0 -0 -0 -0
-0 -0 -0 -0 -0 -0 -0 -0 -0 -0 -0 -0 -0 -0 -0 -0 -0 -0 -0 -0 -0 -0 -0 0 -0 -0 -0 -0 -0 -0 -0 -0 -0 -0 -0 -0 -0 -0 -0 -0 -0 -0 -0 -0
-0 -0 -0 -0 -0 -0 -0 -0 -0 -0 -0 -0 -0 -0 -0 -0 0 0 -0 -0 -0 0 0 0 0 0 0 -0 -0 -0 -0 0 0 0 0 -0 -0 -0 -0 -0 -0 -0 -0 -0
-0 -0 -0 -0 -0 -0 -0 -0 -0 -0 -0 -0 -0 -0 -0 -0 0 0 0 0 0 0 0 0 0 0 0 0 0 0 0 0 0 0 0 0 0 -0 -0 -0 -0 -0 -0 -0
-0 -0 -0 -0 -0 -0 -0 -0 -0 -0 -0 -0 -0 -0 -0 0 0 0 0 0 0 0 0 0 0 0 0 0 0 0 0 0 0 0 0 0 0 -0 -0 -0 -0 -0 -0 -0
-0 -0 -0 -0 -0 -0 -0 -0 -0 -0 -0 -0 -0 -0 0 0 0 0 0 0 0 0 0 0 0 0 0 0 0 0 0 0 -0 -0 -0 0 -0 -0 -0 -0 -0 -0 -0 -0
-0 -0 -0 -0 -0 -0 -0 -0 -0 -0 -0 -0 -0 0 0 0 0 0 0 0 0 0 0 0 0 0 0 0 -0 -0 -0 -0 -0 -0 -0 -0 -0 -0 -0 -0 -0 -0 -0 -0
-0 -0 -0 -0 -0 -0 -0 -0 -0 -0 -0 0 0 0 0 0 0 0 0 0 0 0 0 0 0 0 0 -0 -0 -0 -0 -0 -0 -0 -0 -0 -0 -0 -0 -0 -0 -0 -0 -0
-0 -0 -0 -0 -0 -0 -0 -0 -0 -0 -0 0 0 0 0 0 0 0 0 0 0 0 0 0 0 0 -0 -0 -0 -0 -0 -0 0 0 -0 -0 -0 -0 -0 -0 -0 -0 -0 -0
-0 -0 -0 -0 -0 -0 -0 -0 -0 -0 0 0 0 0 0 0 0 0 0 0 0 0 0 0 0 0 -0 -0 -0 -0 -0 0 0 0 -0 -0 -0 -0 -0 -0 -0 -0 -0 -0
-0 -0 -0 -0 -0 -0 -0 -0 -0 0 0 0 0 0 0 0 0 0 0 0 0 0 0 0 0 0 -0 -0 -0 0 0 0 0 0 -0 -0 -0 -0 -0 -0 -0 -0 -0 -0
-0 -0 -0 -0 -0 -0 -0 -0 -0 0 0 0 0 0 0 0 0 0 0 0 0 0 0 0 0 0 0 0 0 0 0 0 0 0 0 0 -0 0 0 -0 -0 -0 -0 -0
-0 -0 -0 -0 -0 -0 -0 -0 0 0 0 0 0 0 0 0 0 0 0 0 0 0 0 0 -0 0 0 0 0 0 0 0 0 0 0 0 0 0 0 0 -0 -0 -0 -0
-0 -0 -0 -0 -0 -0 0 0 0 0 0 0 0 0 0 0 0 0 0 0 0 0 0 0 0 0 0 0 0 0 0 0 0 0 0 0 0 0 0 -0 -0 -0 -0 -0
-0 -0 -0 -0 -0 0 0 0 0 0 0 0 0 0 0 0 0 0 0 0 0 0 -0 0 0 0 0 0 0 0 0 0 0 0 0 0 0 0 0 0 -0 -0 -0 -0
-0 -0 -0 -0 -0 0 0 0 0 0 0 0 0 0 0 0 0 0 0 0 0 -0 -0 0 0 0 0 0 0 0 0 0 0 0 0 0 0 0 0 0 0 -0 -0 -0
-0 -0 -0 -0 -0 -0 0 0 0 0 0 0 0 0 0 0 0 0 0 0 -0 -0 -0 0 0 0 0 0 0 0 0 0 0 0 0 0 0 0 0 0 0 -0 -0 -0
-0 -0 -0 -0 -0 -0 0 0 0 0 0 0 0 0 0 0 0 0 0 0 -0 -0 -0 0 0 0 0 0 0 0 0 0 0 0 0 0 0 0 0 0 -0 -0 -0 -0
Wind_Speed
5 8 5 2 4 5 4 4 0 5 4 2 6 7 7 5 6 6 6 7 7 7 7 6 5 5 5 5 4 3 2 2 2 2 3 2 3 3 3 4 5 5 5 5
7 5 2 4 3 5 6 5 2 5 4 2 5 6 7 5 6 6 6 6 6 6 6 6 5 5 5 5 4 3 2 3 3 2 3 3 3 3 3 3 3 4 4 4
4 4 3 4 5 6 6 5 2 2 5 6 6 8 8 7 6 6 5 5 5 5 5 5 5 5 4 4 4 3 4 3 3 4 3 2 2 3 2 2 2 3 3 3
2 2 4 6 4 6 4 2 4 4 7 4 6 3 10 7 7 6 6 5 5 4 4 4 4 4 4 3 3 3 3 3 4 4 4 5 4 4 3 2 2 3 2 3
2 3 6 5 4 6 4 2 4 6 8 6 5 7 9 6 6 7 6 4 4 3 3 2 2 2 2 1 2 2 2 3 4 4 4 5 4 4 3 2 2 3 2 2
2 1 3 5 3 2 1 4 5 8 9 6 1 6 6 5 4 5 5 4 3 2 1 0 1 2 2 3 3 4 4 5 5 5 5 5 5 5 5 5 4 3 2 2
0 2 2 3 4 3 4 7 6 5 5 0 3 4 7 6 4 3 2 2 1 1 1 2 3 4 5 6 6 6 7 7 7 7 7 7 7 7 7 7 5 5 4 3
3 2 5 5 6 6 4 7 7 7 6 3 3 1 8 5 4 2 1 1 2 3 3 4 5 6 7 8 8 9 8 9 9 9 9 8 9 9 8 7 8 7 6 5
5 3 4 4 4 5 3 3 6 8 7 7 1 7 8 4 2 1 1 2 3 4 5 6 7 8 10 10 10 10 10 10 10 11 10 10 11 10 11 10 10 9 7 7
5 5 2 1 3 4 4 3 4 5 7 7 2 2 4 3 3 3 3 4 5 6 7 8 9 10 10 10 10 11 11 11 12 12 11 11 11 12 12 12 12 11 11 10
5 6 1 1 4 7 2 1 4 4 5 7 6 4 6 4 5 6 6 5 6 8 10 10 11 11 11 12 12 12 12 13 13 13 13 13 13 14 14 13 13 13 12 12
3 6 3 4 5 3 5 6 5 5 4 5 7 4 6 3 3 5 6 7 8 10 11 12 12 12 12 13 14 14 14 15 15 15 15 15 14 15 15 15 14 14 14 14
2 4 4 7 7 4 3 4 4 3 4 5 7 5 5 1 4 5 8 9 10 12 13 13 13 13 14 14 15 15 16 16 16 16 16 16 16 16 16 16 16 15 15 15
4 3 6 7 6 3 1 2 3 5 5 7 7 10 7 6 7 9 10 12 13 14 13 14 13 14 14 15 16 16 17 17 17 16 17 17 17 17 17 17 16 16 16 15
4 1 2 3 2 1 1 0 2 4 6 8 10 12 10 8 9 10 12 13 15 15 15 15 15 15 16 16 16 17 17 16 17 17 17 17 18 17 17 17 16 16 15 16
2 2 2 2 1 2 3 2 2 3 6 9 11 10 7 8 10 12 13 15 15 15 16 17 17 17 17 17 17 17 17 17 17 17 18 17 17 17 17 17 16 16 15 15
3 3 5 2 1 6 6 4 3 5 8 9 11 11 11 12 13 14 14 14 14 16 17 18 18 17 17 17 17 17 17 17 17 17 17 17 17 17 16 17 17 16 15 14
4 5 4 4 4 6 5 3 2 6 9 7 8 10 11 12 13 14 11 11 14 16 17 17 17 18 17 17 17 17 17 17 16 17 17 16 16 17 16 16 16 15 14 13
4 5 5 5 7 6 5 3 2 7 10 4 6 10 12 13 14 9 8 12 14 16 16 16 17 17 17 17 16 17 17 17 17 17 16 16 16 16 16 16 16 14 13 13
5 6 7 6 9 7 3 6 1 6 5 3 6 10 12 13 12 10 13 15 15 15 15 15 16 17 16 16 16 16 17 17 17 16 16 16 15 15 15 15 15 13 12 12
7 7 8 8 9 4 7 6 3 6 7 5 7 9 11 11 11 13 15 14 15 15 16 16 16 15 15 15 15 16 16 16 16 16 16 15 15 15 14 14 12 11 10 10
7 6 6 6 7 1 8 4 4 5 4 5 7 8 10 11 12 13 14 14 15 15 16 16 15 15 14 14 14 15 16 15 15 15 15 16 15 13 12 12 11 9 8 9
6 5 4 4 3 5 4 2 1 2 5 5 7 8 9 11 12 13 13 14 14 15 15 15 15 16 15 14 14 16 15 15 15 15 15 14 14 12 11 10 10 8 6 6
4 2 5 6 5 3 4 4 3 3 4 5 6 7 8 11 12 13 13 13 14 14 14 14 15 15 15 15 15 15 15 14 14 15 14 13 12 11 10 8 7 6 5 5
5 5 6 8 6 4 6 5 4 4 4 4 5 6 8 10 11 12 12 13 13 13 13 13 14 15 15 15 15 15 14 14 14 14 13 12 11 10 8 7 6 6 5 4
8 9 9 7 3 5 2 3 4 4 4 4 5 6 7 8 11 12 12 12 12 13 13 13 14 15 15 15 15 14 13 14 13 12 11 9 9 8 7 7 5 2 4 3
Wind_Direction
217 244 249 328 307 316 301 282 266 89 103 96 106 106 94 91 91 91 89 90 87 79 73 67 65 64 65 63 61 53 30 18 336 308 295 289 279 273 273 270 278 275 272 268
226 220 353 317 280 256 249 253 183 128 142 170 134 117 105 91 82 77 87 91 93 94 86 75 72 72 69 63 50 41 27 16 335 333 305 292 298 291 296 311 317 316 309 292
271 20 354 270 241 246 246 265 282 157 163 185 185 162 142 123 113 107 101 96 91 88 83 78 69 63 62 60 40 25 9 355 338 324 308 304 278 271 292 316 317 326 320 315
269 339 297 281 275 280 271 339 288 212 222 205 235 250 136 140 134 121 113 103 94 87 84 79 76 66 59 54 42 25 359 344 335 319 328 327 322 324 334 312 315 304 301 310
307 329 309 304 338 309 349 341 266 251 258 261 214 271 122 150 138 123 118 110 100 94 88 81 63 44 27 6 353 343 328 321 323 320 316 306 316 321 319 308 297 289 296 298
311 300 321 337 332 318 222 229 223 237 252 247 71 286 116 107 93 112 119 119 116 119 119 188 291 299 301 301 303 305 304 301 300 298 301 298 303 303 305 298 297 287 287 290
136 124 75 321 273 188 252 275 263 247 243 126 106 275 74 79 79 78 99 111 132 207 272 284 292 301 303 300 299 297 296 296 295 293 290 286 285 283 276 281 285 283 283 273
326 40 42 10 343 323 321 300 308 310 317 330 172 87 86 79 88 98 105 306 287 283 287 297 301 302 302 302 299 295 294 293 293 290 287 282 277 275 280 277 286 284 280 281
334 4 76 36 8 321 296 322 338 290 284 285 130 114 118 120 119 162 265 279 291 298 301 302 306 310 311 311 308 304 301 296 292 290 287 279 274 276 282 281 270 272 271 270
326 309 38 51 219 73 356 334 276 298 318 305 307 114 98 88 20 352 327 315 309 305 306 310 313 316 317 314 310 307 301 298 295 291 287 286 283 277 272 271 275 275 274 270
314 295 322 136 24 9 360 359 330 311 322 313 320 64 66 30 3 339 334 330 321 317 318 319 320 319 316 314 313 311 306 302 298 293 290 287 285 282 277 270 267 266 265 266
339 305 331 84 85 30 37 14 345 327 344 311 303 74 91 32 347 327 325 324 323 321 319 320 321 321 318 316 315 311 309 305 302 298 294 289 286 283 279 276 274 272 268 263
338 293 256 170 164 144 66 49 22 338 298 318 317 36 114 321 308 312 316 320 319 319 320 320 321 320 317 316 315 312 310 308 306 303 299 294 290 287 283 279 276 273 270 266
292 344 338 0 21 11 57 64 20 335 329 328 335 333 336 339 324 321 321 319 318 319 320 321 321 318 317 315 312 311 310 309 307 305 301 298 294 291 286 282 279 276 271 267
273 6 30 35 32 313 332 4 5 358 348 326 330 323 339 349 331 324 321 320 320 321 323 324 322 319 316 313 313 310 309 308 307 304 300 298 297 294 290 286 282 277 274 269
281 300 260 188 170 269 243 231 279 326 326 321 316 326 8 332 318 319 322 323 322 323 325 323 320 318 316 315 313 312 309 308 307 302 300 299 298 295 291 287 283 279 272 270
216 247 277 288 189 262 233 207 257 310 326 321 318 332 336 323 325 324 322 320 324 325 323 321 319 317 316 314 314 311 310 309 305 302 301 300 297 294 292 290 287 282 276 271
238 254 273 295 270 278 69 93 295 305 310 313 310 321 328 323 323 313 314 327 326 323 321 320 319 318 316 316 315 314 312 309 306 303 302 301 298 295 293 290 287 284 279 272
233 246 274 284 286 285 148 175 278 309 308 326 318 323 324 326 312 309 11 343 327 322 320 318 318 317 317 317 320 317 312 310 308 306 306 304 301 299 295 290 287 285 280 273
189 231 260 269 291 299 89 119 94 283 280 76 324 321 324 322 315 338 351 334 327 324 321 320 319 317 318 321 321 315 311 310 309 310 308 305 302 298 294 291 289 285 279 273
206 219 249 269 277 292 106 128 209 284 6 5 325 322 320 323 316 321 326 327 325 322 321 321 320 319 320 320 318 313 311 311 313 312 308 304 301 299 293 290 287 284 279 274
259 253 243 266 272 315 128 172 267 341 357 322 320 321 322 317 315 320 325 324 323 323 324 326 323 321 321 322 320 315 313 316 314 310 306 305 305 302 300 298 293 287 280 273
253 299 300 277 333 84 167 224 345 328 302 317 319 324 321 317 321 324 324 324 324 324 326 326 324 322 323 326 324 318 319 319 316 312 310 310 309 306 304 300 299 295 281 272
198 207 254 254 247 206 206 224 232 252 284 308 313 316 318 318 322 324 324 323 324 326 327 327 326 324 324 328 325 321 321 322 317 315 315 313 312 312 312 308 303 299 294 286
281 205 239 251 259 234 211 219 230 234 257 282 300 314 318 319 320 323 321 323 325 325 327 327 326 323 325 328 324 324 327 324 320 319 317 316 318 321 318 315 315 314 308 301
241 231 243 266 237 235 190 162 199 223 246 278 299 307 315 319 320 321 321 323 323 323 325 327 327 326 326 326 324 328 330 326 323 320 321 322 326 327 323 321 321 303 291 292